[[{"header":{"parameterUnit":"m.s-1","parameterCategory":2,"la1":30.2991,"la2":30.254,"lo1":-89.0895,"lo2":-89.0444,"dy":0.0017,"dx":0.0017,"nx":28,"ny":28,"refTime":"2024-08-13T21:00:00:Z","depth":"0","parameterNumber":2,"parameterNumberName":"U-component_of_CURRENTS"},"data":[0,0,0,0,0,0,0,0,0,0,0,0,0,0,0,0,0,0,0,0,0,0,0,0,0,0,0,0,0,0,0,0,0,0,0,0,0,0,0,0,0,0,0,0,0,0,0,0,0,0,0,0,0,0,0,0,0,0,-0.1129,-0.1129,0,-0.1128,-0.1128,-0.1127,-0.1081,-0.108,-0.1079,-0.1079,-0.1136,-0.1138,-0.114,0,0,0,0,0,0,0,0,0,0,0,0,0,-0.1094,-0.1094,-0.1129,-0.1129,-0.113,-0.1128,-0.1128,-0.1127,-0.1081,-0.108,-0.1079,-0.1079,-0.1136,-0.1138,-0.1141,0,0,0,0,0,0,0,0,0,0,0,0,0,-0.1097,-0.1094,-0.1128,-0.1111,-0.1109,-0.1129,-0.1128,-0.1127,-0.1081,-0.108,-0.1079,-0.1078,-0.1135,-0.1138,-0.1141,-0.1182,0,0,-0.1151,-0.1152,0,0,0,0,0,0,0,0,-0.1097,-0.1098,-0.1113,-0.1112,-0.1111,-0.1109,-0.1137,-0.115,-0.1081,-0.1086,-0.1079,-0.1078,-0.1137,-0.114,-0.1133,-0.1185,-0.1187,-0.1151,-0.1153,-0.1155,-0.1156,0,0,0,0,0,0,0,-0.1097,-0.1098,-0.1123,-0.1113,-0.1112,-0.1105,-0.1103,-0.1139,-0.1114,-0.1085,-0.1083,-0.1093,-0.1136,-0.113,-0.1134,-0.1188,-0.1151,-0.1154,-0.1156,-0.1157,-0.1235,-0.1235,0,0,0,0,0,0,-0.111,-0.1098,-0.1123,-0.1123,-0.1108,-0.1107,-0.1105,-0.1106,-0.1112,-0.1113,-0.1094,-0.1091,-0.1125,-0.1131,-0.1136,-0.1145,-0.1155,-0.1158,-0.116,-0.1235,-0.1235,-0.1235,0,0,0,0,0,0,-0.1109,-0.1112,-0.1123,-0.1115,-0.1117,-0.1109,-0.111,-0.1106,-0.11,-0.1119,-0.112,-0.1092,-0.1124,-0.1132,-0.1156,-0.1149,-0.1159,-0.1162,-0.1235,-0.1235,-0.1235,-0.119,0,0,0,0,0,0,-0.1108,-0.1111,-0.1105,-0.1116,-0.1118,-0.1123,-0.1111,-0.1107,-0.1111,-0.1106,-0.1119,-0.1122,-0.1124,-0.1151,-0.116,-0.1154,-0.1165,-0.1234,-0.1235,-0.1235,-0.1191,-0.1189,-0.1186,0,0,0,0,0,-0.1106,-0.1092,-0.1104,-0.1107,-0.1113,-0.1123,-0.1122,-0.111,-0.1112,-0.1101,-0.1112,-0.1121,-0.1158,-0.1154,-0.1164,-0.1159,-0.1234,-0.1235,-0.1235,-0.1193,-0.1189,-0.1186,0,0,0,0,0,0,-0.1039,-0.1088,-0.11,-0.1092,-0.1109,-0.1117,-0.1112,-0.1117,-0.1117,-0.1119,-0.1131,-0.1136,-0.1153,-0.117,-0.1166,-0.1182,-0.1196,-0.1198,-0.116,-0.1158,-0.1155,-0.1143,-0.1167,0,0,0,0,0,-0.1036,-0.1048,-0.1088,-0.1073,-0.1096,-0.1112,-0.1114,-0.1115,-0.1125,-0.1123,-0.1131,-0.1147,-0.1163,-0.1171,-0.1189,-0.1208,-0.1183,-0.1209,-0.1207,-0.1204,-0.1201,-0.1189,-0.1184,-0.1236,-0.1236,-0.1236,0,0,-0.1004,-0.103,-0.1035,-0.1063,-0.1081,-0.1088,-0.1108,-0.1118,-0.1109,-0.1136,-0.1123,-0.1147,-0.1169,-0.1175,-0.1184,-0.1186,-0.1162,-0.1205,-0.1202,-0.1201,-0.1188,-0.1183,-0.1178,-0.1236,-0.1236,-0.1236,0,0,-0.0957,-0.0982,-0.0992,-0.101,-0.105,-0.1066,-0.1076,-0.1101,-0.1101,-0.1113,-0.1122,-0.1141,-0.1166,-0.1167,-0.1176,-0.1179,-0.1154,-0.1187,-0.1158,-0.1145,-0.114,-0.1136,-0.1026,-0.1012,-0.1178,-0.1178,-0.1178,0,-0.0931,-0.0933,-0.0987,-0.0997,-0.1007,-0.1059,-0.1061,-0.1069,-0.1086,-0.1091,-0.1104,-0.113,-0.1159,-0.1156,-0.1152,-0.1172,-0.1129,-0.1164,-0.1139,-0.1135,-0.1132,-0.1021,-0.1006,-0.1176,-0.1176,-0.1177,-0.1177,0,-0.0899,-0.0897,-0.0902,-0.094,-0.0951,-0.0962,-0.1003,-0.101,-0.1035,-0.1044,-0.1061,-0.1093,-0.1101,-0.1118,-0.114,-0.1127,-0.1087,-0.114,-0.1141,-0.1123,-0.1007,-0.0993,-0.1173,-0.1174,-0.1175,-0.1175,0,0,-0.0877,-0.0888,-0.0889,-0.0886,-0.093,-0.0934,-0.094,-0.0962,-0.0952,-0.0985,-0.0965,-0.1017,-0.1039,-0.1052,-0.1079,-0.108,-0.1005,-0.1096,-0.1097,-0.0973,-0.0894,-0.0788,-0.0761,-0.1056,-0.1055,-0.1054,-0.0795,0,-0.0851,-0.0841,-0.0856,-0.083,-0.084,-0.0876,-0.0866,-0.0883,-0.0906,-0.0894,-0.0946,-0.0941,-0.101,-0.1007,-0.1023,-0.1022,-0.0978,-0.1065,-0.0942,-0.0936,-0.0836,-0.0747,-0.0646,-0.0403,-0.0781,-0.0779,-0.0777,0,-0.0828,-0.0828,-0.0808,-0.0786,-0.0796,-0.0778,-0.0783,-0.0783,-0.0793,-0.0803,-0.0821,-0.0848,-0.0846,-0.0919,-0.0877,-0.0926,-0.0901,-0.0897,-0.0888,-0.0803,-0.0807,-0.0499,-0.0363,-0.0291,-0.0755,-0.0757,-0.0758,0,-0.0796,-0.0786,-0.0766,-0.0763,-0.0759,-0.0745,-0.0746,-0.0756,-0.0747,-0.0738,-0.071,-0.0732,-0.0709,-0.0726,-0.0719,-0.0792,-0.0642,-0.0741,-0.0597,-0.0585,-0.0482,-0.0464,-0.0259,-0.0691,-0.0692,-0.0693,-0.0693,0,-0.0771,-0.0749,-0.0744,-0.0729,-0.07,-0.071,-0.0676,-0.0676,-0.0659,-0.0624,-0.0658,-0.0611,-0.0671,-0.0606,-0.0634,-0.0523,-0.0558,-0.0547,-0.0518,-0.0455,-0.0438,-0.0363,-0.0512,-0.0683,-0.0685,-0.0687,-0.0688,0,-0.0737,-0.0736,-0.07,-0.0683,-0.068,-0.0659,-0.063,-0.0597,-0.0584,-0.0529,-0.0514,-0.0482,-0.0395,-0.0389,-0.0356,-0.0364,-0.0295,-0.0259,-0.0124,-0.0086,0.0059,-0.0096,-0.0056,-0.0045,-0.006,-0.0056,-0.0053,0,-0.0712,-0.0696,-0.0664,-0.0634,-0.0624,-0.06,-0.0574,-0.0567,-0.053,-0.045,-0.0405,-0.0295,-0.0218,-0.0059,-0.004,0.0047,-0.0089,0.0193,0.0028,0.0138,-0.0014,-0.0192,-0.02,0.0228,0.0233,0.0237,0.0241,0,-0.0663,-0.0652,-0.0618,-0.0569,-0.053,-0.05,-0.0463,-0.0427,-0.0402,-0.0341,-0.0231,-0.0156,0.0017,0.0147,0.0286,0.0317,0.0164,0.0286,0.034,0.0191,0.0064,0.0069,0.0047,0.0281,0.0277,0.0274,0.0272,0.027,-0.0598,-0.0569,-0.0518,-0.0468,-0.0435,-0.0386,-0.0337,-0.0303,-0.0236,-0.0136,-0.0096,0.0048,0.0242,0.0431,0.0526,0.0733,0.0424,0.0711,0.0521,0.0345,0.0312,0.0429,0.07,0.0699,0.0697,0.0696,0.0695,0,-0.0498,-0.0473,-0.0417,-0.0343,-0.0292,-0.031,-0.0244,-0.0187,-0.0105,-0.0028,0.0065,0.0308,0.0538,0.0719,0.0953,0.0993,0.0885,0.0951,0.0733,0.0715,0.085,0.0828,0.1209,0.1209,0.1209,0.1209,0.1209,0.1209,-0.0437,-0.0361,-0.0341,-0.0222,-0.0187,-0.0115,-0.0077,-0.0012,0.0052,0.0206,0.0325,0.0423,0.0641,0.0853,0.111,0.1121,0.0975,0.0865,0.0767,0.0887,0.0851,0.0817,0.078,0.1144,0.1143,0.0756,0.0752,0.0749]},{"header":{"parameterUnit":"m.s-1","parameterCategory":2,"la1":30.2991,"la2":30.254,"lo1":-89.0895,"lo2":-89.0444,"dy":0.0017,"dx":0.0017,"nx":28,"ny":28,"refTime":"2024-08-13T21:00:00:Z","depth":"0","parameterNumber":3,"parameterNumberName":"V-component_of_CURRENTS"},"data":[0,0,0,0,0,0,0,0,0,0,0,0,0,0,0,0,0,0,0,0,0,0,0,0,0,0,0,0,0,0,0,0,0,0,0,0,0,0,0,0,0,0,0,0,0,0,0,0,0,0,0,0,0,0,0,0,0,0,-0.086,-0.086,0,-0.0841,-0.0841,-0.0841,-0.0802,-0.0801,-0.08,-0.0799,-0.0696,-0.0694,-0.0692,0,0,0,0,0,0,0,0,0,0,0,0,0,-0.0806,-0.0808,-0.086,-0.086,-0.0859,-0.0841,-0.0841,-0.0841,-0.0802,-0.0801,-0.0799,-0.0798,-0.0696,-0.0694,-0.0692,0,0,0,0,0,0,0,0,0,0,0,0,0,-0.0815,-0.0809,-0.086,-0.0836,-0.0834,-0.0841,-0.0841,-0.0841,-0.0802,-0.0801,-0.0799,-0.0798,-0.0697,-0.0694,-0.0692,-0.0704,0,0,-0.0683,-0.0682,0,0,0,0,0,0,0,0,-0.0814,-0.0817,-0.084,-0.0838,-0.0835,-0.0821,-0.0784,-0.079,-0.0802,-0.0816,-0.0799,-0.0797,-0.0729,-0.0724,-0.0728,-0.0699,-0.0694,-0.0683,-0.0681,-0.068,-0.0679,0,0,0,0,0,0,0,-0.0814,-0.0817,-0.0855,-0.084,-0.0837,-0.0807,-0.0807,-0.0785,-0.0781,-0.0815,-0.0811,-0.0807,-0.0727,-0.0731,-0.0725,-0.0693,-0.0683,-0.0681,-0.0679,-0.0678,-0.0597,-0.0597,0,0,0,0,0,0,-0.0817,-0.0818,-0.0855,-0.0854,-0.0819,-0.0809,-0.0809,-0.0828,-0.0783,-0.0775,-0.0808,-0.0805,-0.0736,-0.0728,-0.0721,-0.0704,-0.068,-0.0677,-0.0676,-0.0598,-0.0597,-0.0596,0,0,0,0,0,0,-0.0817,-0.0822,-0.0856,-0.0832,-0.0834,-0.0812,-0.0833,-0.0829,-0.0817,-0.0778,-0.0769,-0.0799,-0.0734,-0.0724,-0.0726,-0.0701,-0.0676,-0.0674,-0.0598,-0.0597,-0.0597,-0.0689,0,0,0,0,0,0,-0.0816,-0.0823,-0.0836,-0.0833,-0.0835,-0.0864,-0.0834,-0.0829,-0.0816,-0.0812,-0.0768,-0.0758,-0.0733,-0.073,-0.0723,-0.0696,-0.0672,-0.0599,-0.0598,-0.0597,-0.0686,-0.0691,-0.0695,0,0,0,0,0,-0.0814,-0.0833,-0.0838,-0.0841,-0.0856,-0.0865,-0.0864,-0.0843,-0.0817,-0.0825,-0.0811,-0.0758,-0.0716,-0.0731,-0.0721,-0.0693,-0.0599,-0.0598,-0.0597,-0.0684,-0.069,-0.0695,0,0,0,0,0,0,-0.0819,-0.0831,-0.0835,-0.0859,-0.0865,-0.0857,-0.0851,-0.0841,-0.0837,-0.0832,-0.0787,-0.0778,-0.0758,-0.0718,-0.0734,-0.0661,-0.0634,-0.0631,-0.0703,-0.0708,-0.0713,-0.0723,-0.0669,0,0,0,0,0,-0.083,-0.0853,-0.0855,-0.0881,-0.0872,-0.0863,-0.086,-0.0861,-0.0854,-0.0849,-0.0822,-0.0782,-0.0748,-0.0728,-0.07,-0.0683,-0.0635,-0.0644,-0.0648,-0.0653,-0.0652,-0.0587,-0.0586,-0.0593,-0.0593,-0.0593,0,0,-0.0844,-0.0852,-0.0867,-0.0884,-0.0877,-0.0878,-0.0857,-0.0866,-0.0871,-0.0839,-0.0833,-0.0808,-0.075,-0.0734,-0.0715,-0.0697,-0.0626,-0.0651,-0.0656,-0.0653,-0.0585,-0.0585,-0.0584,-0.0592,-0.0592,-0.0592,0,0,-0.0865,-0.0882,-0.0891,-0.0896,-0.0898,-0.0898,-0.0897,-0.0897,-0.0891,-0.0899,-0.0867,-0.0852,-0.079,-0.0768,-0.0736,-0.0747,-0.0659,-0.0701,-0.073,-0.0666,-0.0666,-0.0665,-0.0613,-0.0606,-0.0696,-0.0696,-0.0696,0,-0.0877,-0.0892,-0.0897,-0.0898,-0.0896,-0.0901,-0.0903,-0.0908,-0.0918,-0.0914,-0.0899,-0.0836,-0.0804,-0.0774,-0.0779,-0.0758,-0.0704,-0.0722,-0.0675,-0.0673,-0.067,-0.0616,-0.0608,-0.07,-0.07,-0.07,-0.0699,0,-0.0897,-0.0902,-0.0902,-0.0909,-0.0917,-0.0926,-0.093,-0.0947,-0.0933,-0.0929,-0.0908,-0.0892,-0.0848,-0.0823,-0.0805,-0.0762,-0.0725,-0.0699,-0.067,-0.0675,-0.0618,-0.0608,-0.0707,-0.0705,-0.0704,-0.0703,0,0,-0.092,-0.0916,-0.0911,-0.0905,-0.0922,-0.0928,-0.0948,-0.0953,-0.0952,-0.0953,-0.0933,-0.0905,-0.0896,-0.0862,-0.0838,-0.079,-0.0743,-0.0737,-0.0731,-0.0701,-0.0596,-0.0677,-0.0673,-0.0697,-0.0696,-0.0695,-0.0569,0,-0.0921,-0.0921,-0.0922,-0.0923,-0.0914,-0.0932,-0.0948,-0.0968,-0.0964,-0.0958,-0.0936,-0.0907,-0.0906,-0.0886,-0.0849,-0.0795,-0.0716,-0.0779,-0.058,-0.0575,-0.0659,-0.0664,-0.061,-0.0503,-0.0558,-0.0556,-0.0555,0,-0.0924,-0.0918,-0.092,-0.0917,-0.0912,-0.0923,-0.0942,-0.0964,-0.0972,-0.0964,-0.0955,-0.0929,-0.092,-0.0875,-0.0789,-0.0826,-0.0702,-0.0634,-0.0627,-0.0663,-0.0637,-0.0501,-0.0481,-0.0326,-0.0538,-0.054,-0.0541,0,-0.0925,-0.0909,-0.091,-0.0912,-0.0921,-0.0924,-0.0936,-0.0961,-0.0966,-0.0968,-0.095,-0.0945,-0.0917,-0.0826,-0.0761,-0.0742,-0.0631,-0.0581,-0.0517,-0.0521,-0.0419,-0.0418,-0.0239,-0.0419,-0.0419,-0.042,-0.042,0,-0.0921,-0.0905,-0.0904,-0.0903,-0.0898,-0.0918,-0.0926,-0.0942,-0.0951,-0.094,-0.0953,-0.0929,-0.0887,-0.0841,-0.0757,-0.0673,-0.063,-0.0527,-0.0497,-0.0452,-0.0456,-0.0273,-0.0216,-0.0415,-0.0416,-0.0417,-0.0418,0,-0.0906,-0.0914,-0.0907,-0.0906,-0.0901,-0.0904,-0.0903,-0.0908,-0.0929,-0.0914,-0.0907,-0.09,-0.0873,-0.0844,-0.0704,-0.0663,-0.0491,-0.0501,-0.0485,-0.0458,-0.03,-0.0253,-0.0104,-0.0018,-0.0419,-0.042,-0.0421,0,-0.089,-0.089,-0.0903,-0.0897,-0.0884,-0.0883,-0.0885,-0.0898,-0.0891,-0.089,-0.0865,-0.0842,-0.0819,-0.0753,-0.0707,-0.0619,-0.0452,-0.0459,-0.0419,-0.0298,-0.0218,-0.0202,-0.0137,-0.0295,-0.0295,-0.0295,-0.0295,0,-0.0841,-0.0864,-0.0865,-0.0871,-0.086,-0.0846,-0.0833,-0.0816,-0.0832,-0.0819,-0.0787,-0.077,-0.0745,-0.0697,-0.0648,-0.056,-0.0386,-0.0458,-0.0291,-0.0095,-0.0096,0.0003,-0.0383,-0.0295,-0.0295,-0.0295,-0.0295,-0.0295,-0.0801,-0.0801,-0.0827,-0.0823,-0.0816,-0.0789,-0.0766,-0.0739,-0.0717,-0.0661,-0.0688,-0.0625,-0.0591,-0.0555,-0.0502,-0.0323,-0.0336,-0.0175,-0.0119,-0.0108,-0.0058,-0.0497,-0.0423,-0.0423,-0.0424,-0.0425,-0.0425,0,-0.0742,-0.0753,-0.0762,-0.0763,-0.0743,-0.0754,-0.0715,-0.0681,-0.0624,-0.0558,-0.0521,-0.0392,-0.0333,-0.026,-0.0124,0.0024,0.0101,0.0133,0.0261,0.032,0.0006,-0.0023,0.009,0.009,0.009,0.009,0.009,0.0089,-0.0707,-0.0706,-0.0727,-0.0687,-0.0682,-0.0633,-0.0604,-0.0548,-0.0487,-0.0333,-0.0209,-0.013,0.0042,0.0147,0.0372,0.0416,0.0624,0.0562,0.0645,0.0522,0.0501,0.0481,0.0471,0.0686,0.0687,0.0996,0.1,0.1002]}],[{"header":{"parameterUnit":"m.s-1","parameterCategory":2,"la1":30.2991,"la2":30.254,"lo1":-89.0895,"lo2":-89.0444,"dy":0.0017,"dx":0.0017,"nx":28,"ny":28,"refTime":"2024-08-13T21:00:00:Z","depth":"2","parameterNumber":2,"parameterNumberName":"U-component_of_CURRENTS"},"data":[0,0,0,0,0,0,0,0,0,0,0,0,0,0,0,0,0,0,0,0,0,0,0,0,0,0,0,0,0,0,0,0,0,0,0,0,0,0,0,0,0,0,0,0,0,0,0,0,0,0,0,0,0,0,0,0,0,0,-0.3015,-0.3016,0,-0.304,-0.3039,-0.3039,-0.3099,-0.3101,-0.3103,-0.3104,-0.3146,-0.3145,-0.3145,0,0,0,0,0,0,0,0,0,0,0,0,0,-0.3002,-0.3002,-0.3015,-0.3016,-0.3017,-0.304,-0.3039,-0.3039,-0.3099,-0.3101,-0.3103,-0.3105,-0.3146,-0.3145,-0.3145,0,0,0,0,0,0,0,0,0,0,0,0,0,-0.3009,-0.3002,-0.3015,-0.3054,-0.3058,-0.304,-0.3039,-0.3039,-0.3098,-0.3101,-0.3104,-0.3106,-0.3146,-0.3145,-0.3144,-0.3083,0,0,-0.3142,-0.3141,0,0,0,0,0,0,0,0,-0.3009,-0.3009,-0.3047,-0.3051,-0.3056,-0.3075,-0.3051,-0.3057,-0.3098,-0.3076,-0.3105,-0.3108,-0.3126,-0.3127,-0.3116,-0.3085,-0.3087,-0.3142,-0.3141,-0.3141,-0.314,0,0,0,0,0,0,0,-0.3008,-0.3008,-0.3018,-0.3048,-0.3054,-0.3065,-0.3068,-0.3051,-0.308,-0.3078,-0.3084,-0.3096,-0.3128,-0.3116,-0.3117,-0.3088,-0.3142,-0.3141,-0.314,-0.314,-0.304,-0.3038,0,0,0,0,0,0,-0.3016,-0.3007,-0.3018,-0.302,-0.3046,-0.3063,-0.3067,-0.3061,-0.3081,-0.3088,-0.3094,-0.3099,-0.3117,-0.3118,-0.3119,-0.3109,-0.3141,-0.314,-0.3139,-0.3042,-0.3039,-0.3037,0,0,0,0,0,0,-0.3015,-0.3015,-0.3017,-0.3021,-0.3023,-0.3062,-0.3053,-0.306,-0.309,-0.3093,-0.3101,-0.3124,-0.3119,-0.312,-0.3132,-0.3109,-0.3139,-0.3138,-0.3044,-0.3041,-0.3038,-0.3049,0,0,0,0,0,0,-0.3014,-0.3014,-0.3037,-0.302,-0.3023,-0.3047,-0.3052,-0.3059,-0.3094,-0.3102,-0.312,-0.3124,-0.3121,-0.3133,-0.3131,-0.3108,-0.3138,-0.3047,-0.3043,-0.3039,-0.3051,-0.3046,-0.3042,0,0,0,0,0,-0.3013,-0.3049,-0.3036,-0.304,-0.3043,-0.3049,-0.3051,-0.3083,-0.3093,-0.3117,-0.3116,-0.3126,-0.3105,-0.3131,-0.3129,-0.3106,-0.3049,-0.3044,-0.3039,-0.3053,-0.3047,-0.3042,0,0,0,0,0,0,-0.3062,-0.3058,-0.3045,-0.3078,-0.3075,-0.3063,-0.3096,-0.3096,-0.311,-0.3122,-0.3117,-0.3121,-0.3121,-0.3101,-0.313,-0.3058,-0.307,-0.3064,-0.3081,-0.3075,-0.3071,-0.3044,-0.3137,0,0,0,0,0,-0.3075,-0.309,-0.3079,-0.3099,-0.3104,-0.3093,-0.3107,-0.3117,-0.3117,-0.3128,-0.3129,-0.3111,-0.3085,-0.308,-0.3067,-0.3032,-0.2976,-0.3005,-0.3,-0.2997,-0.2969,-0.2863,-0.2847,-0.3021,-0.3021,-0.3021,0,0,-0.309,-0.3095,-0.3101,-0.311,-0.3105,-0.3097,-0.3109,-0.3134,-0.3123,-0.3126,-0.3126,-0.3116,-0.3077,-0.3047,-0.304,-0.3037,-0.2919,-0.2991,-0.2989,-0.2962,-0.2856,-0.2839,-0.2824,-0.3018,-0.3019,-0.3019,0,0,-0.3103,-0.3134,-0.3134,-0.3139,-0.3148,-0.3139,-0.3152,-0.3145,-0.3152,-0.3139,-0.3126,-0.3094,-0.3076,-0.3022,-0.2993,-0.2945,-0.2913,-0.2948,-0.2893,-0.2792,-0.2777,-0.2763,-0.2681,-0.266,-0.2929,-0.2929,-0.2929,0,-0.313,-0.311,-0.3139,-0.3136,-0.3137,-0.3155,-0.3138,-0.314,-0.3137,-0.3121,-0.3151,-0.3064,-0.3045,-0.2957,-0.2933,-0.2935,-0.2883,-0.2928,-0.2787,-0.2772,-0.2758,-0.2677,-0.2653,-0.2929,-0.2929,-0.2929,-0.2929,0,-0.3107,-0.3111,-0.312,-0.3103,-0.3118,-0.312,-0.3118,-0.3127,-0.3132,-0.3114,-0.3071,-0.303,-0.297,-0.2948,-0.2925,-0.2802,-0.2803,-0.2813,-0.2808,-0.2741,-0.266,-0.2635,-0.2929,-0.2929,-0.2929,-0.2929,0,0,-0.3087,-0.31,-0.3096,-0.3083,-0.3102,-0.3101,-0.3095,-0.3071,-0.3045,-0.3049,-0.2986,-0.2923,-0.2911,-0.287,-0.2835,-0.2727,-0.2582,-0.2718,-0.2713,-0.2649,-0.2366,-0.2209,-0.2167,-0.2577,-0.2573,-0.2569,-0.2356,0,-0.3043,-0.3036,-0.3044,-0.302,-0.3014,-0.3035,-0.3014,-0.301,-0.3005,-0.2963,-0.2919,-0.286,-0.2881,-0.2833,-0.2742,-0.2639,-0.2514,-0.2639,-0.2428,-0.2421,-0.2299,-0.2131,-0.2106,-0.1899,-0.2332,-0.2328,-0.2325,0,-0.2987,-0.2994,-0.2963,-0.2965,-0.296,-0.293,-0.2904,-0.2894,-0.2859,-0.2856,-0.2817,-0.2805,-0.2687,-0.2692,-0.2491,-0.2579,-0.2451,-0.236,-0.2351,-0.2173,-0.2214,-0.203,-0.1837,-0.2282,-0.2286,-0.2289,-0.2292,0,-0.2939,-0.2933,-0.2905,-0.2907,-0.2906,-0.2865,-0.2853,-0.2834,-0.2808,-0.2764,-0.2724,-0.267,-0.2572,-0.247,-0.2337,-0.2399,-0.2084,-0.2156,-0.1886,-0.1877,-0.179,-0.1778,-0.1929,-0.193,-0.193,-0.1931,-0.1931,0,-0.2896,-0.2855,-0.2864,-0.2848,-0.2781,-0.2805,-0.273,-0.2721,-0.2678,-0.2609,-0.2643,-0.2542,-0.2495,-0.2354,-0.2278,-0.1995,-0.2043,-0.1808,-0.1773,-0.1792,-0.1784,-0.2075,-0.2095,-0.1923,-0.1925,-0.1926,-0.1927,0,-0.2802,-0.2827,-0.2777,-0.2765,-0.2748,-0.2687,-0.2644,-0.2597,-0.2575,-0.2472,-0.2447,-0.2387,-0.2197,-0.2133,-0.1909,-0.184,-0.1644,-0.1513,-0.1544,-0.1511,-0.1532,-0.1555,-0.1205,-0.1196,-0.1189,-0.1184,-0.1179,0,-0.2719,-0.2709,-0.2696,-0.2657,-0.2617,-0.2558,-0.2514,-0.2523,-0.2485,-0.2356,-0.2286,-0.2085,-0.1926,-0.1594,-0.1421,-0.1216,-0.1349,-0.1069,-0.1143,-0.1436,-0.1439,-0.1474,-0.1505,-0.1061,-0.1056,-0.1051,-0.1048,0,-0.2572,-0.2586,-0.2575,-0.2502,-0.2439,-0.241,-0.2353,-0.2326,-0.2307,-0.2209,-0.2021,-0.1865,-0.1501,-0.1258,-0.0982,-0.088,-0.1132,-0.0961,-0.1211,-0.1237,-0.1278,-0.1291,-0.133,-0.1008,-0.1012,-0.1015,-0.1017,-0.1019,-0.2438,-0.2411,-0.2417,-0.2325,-0.2271,-0.2226,-0.2164,-0.2137,-0.2051,-0.1859,-0.1777,-0.1461,-0.1314,-0.0812,-0.0688,-0.0584,-0.064,-0.07,-0.0724,-0.075,-0.0758,-0.0783,-0.0424,-0.0425,-0.0425,-0.0425,-0.0426,0,-0.2285,-0.2283,-0.2227,-0.2154,-0.2057,-0.2059,-0.2019,-0.1948,-0.1802,-0.1609,-0.1388,-0.1044,-0.0809,-0.0668,-0.042,-0.0314,-0.0405,-0.0343,-0.0552,-0.0588,-0.0621,-0.0635,-0.0261,-0.0261,-0.026,-0.026,0,0,-0.2231,-0.2155,-0.2157,-0.1962,-0.1875,-0.1733,-0.1688,-0.1581,-0.1446,-0.1168,-0.0933,-0.0774,-0.0664,-0.0485,-0.0415,-0.0325,-0.0464,-0.029,-0.0426,-0.0713,-0.0746,-0.0822,-0.0878,0,0,0,0,0]},{"header":{"parameterUnit":"m.s-1","parameterCategory":2,"la1":30.2991,"la2":30.254,"lo1":-89.0895,"lo2":-89.0444,"dy":0.0017,"dx":0.0017,"nx":28,"ny":28,"refTime":"2024-08-13T21:00:00:Z","depth":"2","parameterNumber":3,"parameterNumberName":"V-component_of_CURRENTS"},"data":[0,0,0,0,0,0,0,0,0,0,0,0,0,0,0,0,0,0,0,0,0,0,0,0,0,0,0,0,0,0,0,0,0,0,0,0,0,0,0,0,0,0,0,0,0,0,0,0,0,0,0,0,0,0,0,0,0,0,0.0364,0.0366,0,0.0477,0.0478,0.0478,0.0607,0.061,0.0613,0.0615,0.0863,0.0866,0.087,0,0,0,0,0,0,0,0,0,0,0,0,0,0.0242,0.0243,0.0364,0.0366,0.0368,0.0477,0.0478,0.0478,0.0607,0.061,0.0613,0.0616,0.0861,0.0866,0.0871,0,0,0,0,0,0,0,0,0,0,0,0,0,0.031,0.0243,0.0364,0.0452,0.0462,0.0477,0.0478,0.0478,0.0606,0.061,0.0614,0.0618,0.086,0.0865,0.0871,0.0826,0,0,0.089,0.0892,0,0,0,0,0,0,0,0,0.0306,0.0313,0.0437,0.0446,0.0457,0.054,0.0526,0.0605,0.0605,0.0542,0.0615,0.062,0.077,0.0784,0.0781,0.0838,0.0848,0.089,0.0894,0.0897,0.0898,0,0,0,0,0,0,0,0.0301,0.0309,0.04,0.0439,0.0452,0.0481,0.0494,0.054,0.0627,0.0547,0.0559,0.0585,0.0776,0.0774,0.0788,0.0852,0.089,0.0896,0.0899,0.0902,0.1095,0.1096,0,0,0,0,0,0,0.0302,0.0304,0.0396,0.0404,0.0401,0.0481,0.0495,0.0502,0.0624,0.0648,0.0581,0.0591,0.0762,0.0781,0.0798,0.0868,0.0897,0.0902,0.0906,0.1093,0.1095,0.1097,0,0,0,0,0,0,0.0298,0.0308,0.0392,0.0365,0.038,0.0479,0.0485,0.0502,0.0554,0.065,0.0676,0.0623,0.0766,0.0789,0.0885,0.0875,0.0905,0.091,0.1091,0.1094,0.1096,0.0936,0,0,0,0,0,0,0.0293,0.0305,0.0306,0.0364,0.0381,0.0426,0.0483,0.0502,0.0564,0.0579,0.0693,0.0717,0.0771,0.0876,0.0891,0.0884,0.0915,0.109,0.1092,0.1095,0.0939,0.0932,0.0926,0,0,0,0,0,0.0288,0.0302,0.0305,0.0317,0.038,0.0427,0.0437,0.0516,0.0563,0.0577,0.0668,0.0716,0.0906,0.088,0.0899,0.0893,0.1088,0.1092,0.1095,0.0942,0.0934,0.0926,0,0,0,0,0,0,0.0258,0.0318,0.0323,0.0354,0.039,0.0453,0.0486,0.0526,0.0599,0.063,0.072,0.0749,0.0837,0.0896,0.0866,0.0968,0.101,0.1017,0.0888,0.0881,0.0875,0.0855,0.092,0,0,0,0,0,0.0241,0.0256,0.0314,0.0327,0.0357,0.0414,0.0446,0.049,0.0565,0.0602,0.068,0.0776,0.085,0.0893,0.0973,0.1006,0.1025,0.1027,0.102,0.1014,0.1017,0.0961,0.0946,0.1108,0.1108,0.1108,0,0,0.023,0.0263,0.0271,0.0319,0.0357,0.0393,0.0444,0.0498,0.0528,0.0616,0.0694,0.0761,0.0863,0.0914,0.0957,0.0966,0.0993,0.1018,0.101,0.1018,0.0962,0.0945,0.093,0.111,0.111,0.1109,0,0,0.0216,0.0247,0.0258,0.0295,0.0357,0.039,0.0414,0.0485,0.0528,0.0592,0.0667,0.0723,0.085,0.0883,0.0927,0.0935,0.097,0.0982,0.091,0.0854,0.0837,0.0823,0.0866,0.0856,0.0962,0.0962,0.0961,0,0.0201,0.0215,0.0267,0.0298,0.0334,0.0396,0.0423,0.0461,0.0549,0.0575,0.0624,0.0759,0.0829,0.0864,0.0867,0.0912,0.0919,0.0912,0.0834,0.082,0.0808,0.0855,0.0847,0.0954,0.0955,0.0956,0.0957,0,0.0197,0.0217,0.0239,0.0284,0.0327,0.0359,0.0429,0.0462,0.0523,0.0561,0.0628,0.0691,0.0766,0.0787,0.0831,0.079,0.0839,0.0829,0.0825,0.078,0.0837,0.083,0.0944,0.0947,0.0949,0.0951,0,0,0.0137,0.0216,0.022,0.0241,0.0324,0.0357,0.0405,0.0453,0.0475,0.0543,0.0564,0.0646,0.0664,0.0715,0.0746,0.0689,0.0613,0.071,0.071,0.0706,0.0546,0.0565,0.0562,0.0554,0.0552,0.0549,0.0631,0,0.011,0.0149,0.0199,0.0235,0.0271,0.0339,0.0369,0.0424,0.0475,0.0506,0.0552,0.0597,0.0642,0.0647,0.06,0.0625,0.0584,0.0597,0.0635,0.0639,0.0616,0.0549,0.0592,0.0664,0.0625,0.0624,0.0624,0,0.0087,0.0117,0.0142,0.021,0.0232,0.0252,0.0307,0.0345,0.04,0.0438,0.0469,0.0522,0.0516,0.0524,0.0518,0.0519,0.0524,0.0527,0.0529,0.0594,0.0642,0.0702,0.0655,0.0614,0.0615,0.0616,0.0616,0,0.0022,0.0081,0.009,0.0118,0.0198,0.0208,0.025,0.0313,0.0343,0.0375,0.039,0.042,0.0426,0.0416,0.0471,0.0471,0.0452,0.0457,0.0494,0.0501,0.0575,0.059,0.0406,0.0406,0.0406,0.0405,0.0405,0,-0.0014,-0.0005,0.0051,0.0065,0.007,0.0153,0.0164,0.0205,0.0252,0.0276,0.0333,0.0337,0.0377,0.04,0.044,0.047,0.0434,0.0479,0.0492,0.0532,0.0542,0.0528,0.0541,0.0408,0.0408,0.0407,0.0407,0,-0.0083,-0.0047,-0.0033,0.0026,0.0042,0.0046,0.0121,0.0137,0.0175,0.0197,0.0203,0.0263,0.0283,0.0355,0.0361,0.0431,0.0455,0.0466,0.0567,0.0587,0.0569,0.0574,0.0528,0.0529,0.0529,0.053,0.053,0,-0.013,-0.0123,-0.0076,-0.0067,-0.0048,-0.0019,0.001,0.0083,0.0109,0.0156,0.0159,0.0183,0.0207,0.0282,0.0388,0.0482,0.044,0.0573,0.0554,0.0549,0.0566,0.057,0.0575,0.0634,0.0635,0.0636,0.0637,0,-0.0201,-0.0182,-0.0159,-0.0137,-0.0117,-0.0083,-0.0037,-0.0034,0.0047,0.0053,0.0069,0.0082,0.0188,0.0328,0.0459,0.0492,0.0566,0.0594,0.0518,0.0578,0.0648,0.0666,0.0666,0.0646,0.0645,0.0644,0.0644,0.0644,-0.0261,-0.0259,-0.0213,-0.0197,-0.017,-0.0145,-0.0121,-0.0083,-0.0066,-0.0022,-0.0004,0.009,0.0218,0.0438,0.0495,0.0598,0.0596,0.0651,0.0648,0.0644,0.0622,0.0686,0.0695,0.0694,0.0694,0.0693,0.0693,0,-0.031,-0.0274,-0.0261,-0.0227,-0.0208,-0.0172,-0.0135,-0.0116,-0.0108,-0.0021,0.0002,0.0136,0.0322,0.046,0.0689,0.0749,0.0707,0.07,0.07,0.0694,0.0688,0.0666,0.0752,0.0751,0.0751,0.075,0,0,-0.0318,-0.0305,-0.0281,-0.0263,-0.0235,-0.0184,-0.0162,-0.0163,-0.0085,-0.0054,0.0096,0.0212,0.0435,0.0569,0.0633,0.0758,0.0669,0.0701,0.0663,0.0651,0.0643,0.0687,0.065,0,0,0,0,0]}],[{"header":{"parameterUnit":"m.s-1","parameterCategory":2,"la1":30.2991,"la2":30.254,"lo1":-89.0895,"lo2":-89.0444,"dy":0.0017,"dx":0.0017,"nx":28,"ny":28,"refTime":"2024-08-13T21:00:00:Z","depth":"4","parameterNumber":2,"parameterNumberName":"U-component_of_CURRENTS"},"data":[0,0,0,0,0,0,0,0,0,0,0,0,0,0,0,0,0,0,0,0,0,0,0,0,0,0,0,0,0,0,0,0,0,0,0,0,0,0,0,0,0,0,0,0,0,0,0,0,0,0,0,0,0,0,0,0,0,0,-0.1247,-0.1248,0,-0.1302,-0.1302,-0.1303,-0.1336,-0.1336,-0.1336,-0.1336,-0.1427,-0.1429,-0.1432,0,0,0,0,0,0,0,0,0,0,0,0,0,-0.1146,-0.1148,-0.1247,-0.1248,-0.1248,-0.1302,-0.1302,-0.1303,-0.1336,-0.1336,-0.1336,-0.1336,-0.1426,-0.1429,-0.1432,0,0,0,0,0,0,0,0,0,0,0,0,0,-0.1194,-0.1149,-0.1247,-0.1271,-0.1274,-0.1302,-0.1303,-0.1303,-0.1336,-0.1336,-0.1336,-0.1336,-0.1425,-0.1429,-0.1432,-0.1449,0,0,-0.1443,-0.1444,0,0,0,0,0,0,0,0,-0.1192,-0.1198,-0.1267,-0.1269,-0.1272,-0.1312,-0.13,-0.1354,-0.1336,-0.1312,-0.1336,-0.1336,-0.1392,-0.1398,-0.1407,-0.1453,-0.1457,-0.1443,-0.1445,-0.1447,-0.1448,0,0,0,0,0,0,0,-0.1188,-0.1196,-0.1269,-0.1267,-0.1271,-0.1271,-0.1278,-0.131,-0.1351,-0.1314,-0.1317,-0.1323,-0.1394,-0.1404,-0.141,-0.1459,-0.1443,-0.1446,-0.1448,-0.1449,-0.1575,-0.1576,0,0,0,0,0,0,-0.1183,-0.1193,-0.1267,-0.127,-0.1232,-0.1272,-0.1281,-0.1299,-0.135,-0.1357,-0.1322,-0.1324,-0.1398,-0.1406,-0.1413,-0.1487,-0.1447,-0.145,-0.1452,-0.1574,-0.1575,-0.1577,0,0,0,0,0,0,-0.1181,-0.119,-0.1265,-0.1232,-0.1241,-0.1274,-0.1295,-0.13,-0.1333,-0.1356,-0.1364,-0.1352,-0.1398,-0.1408,-0.1452,-0.1489,-0.1451,-0.1454,-0.1572,-0.1574,-0.1576,-0.1603,0,0,0,0,0,0,-0.1178,-0.1189,-0.1207,-0.1232,-0.1243,-0.1287,-0.1295,-0.1301,-0.1335,-0.1338,-0.1383,-0.1391,-0.1399,-0.1447,-0.1456,-0.1493,-0.1457,-0.1571,-0.1573,-0.1575,-0.16,-0.1605,-0.161,0,0,0,0,0,-0.1174,-0.119,-0.1208,-0.1217,-0.1265,-0.1287,-0.1293,-0.1316,-0.1336,-0.1348,-0.1379,-0.139,-0.1469,-0.1451,-0.146,-0.15,-0.1569,-0.1572,-0.1575,-0.1598,-0.1604,-0.161,0,0,0,0,0,0,-0.1155,-0.1196,-0.1215,-0.1245,-0.1268,-0.1292,-0.131,-0.1331,-0.1366,-0.1382,-0.1403,-0.1412,-0.1463,-0.1478,-0.1457,-0.1543,-0.1523,-0.1528,-0.1537,-0.1543,-0.1548,-0.153,-0.146,0,0,0,0,0,-0.1161,-0.1184,-0.122,-0.1242,-0.126,-0.1293,-0.131,-0.1331,-0.1361,-0.1378,-0.1398,-0.1436,-0.148,-0.1508,-0.1533,-0.1583,-0.1574,-0.1616,-0.1621,-0.1625,-0.1617,-0.1642,-0.1647,-0.1586,-0.1586,-0.1586,0,0,-0.1161,-0.1184,-0.12,-0.124,-0.1266,-0.129,-0.1305,-0.134,-0.1362,-0.1384,-0.1417,-0.145,-0.1495,-0.1542,-0.1569,-0.1564,-0.1635,-0.1629,-0.1632,-0.1621,-0.1645,-0.1651,-0.1656,-0.1588,-0.1588,-0.1587,0,0,-0.1161,-0.1197,-0.1218,-0.1238,-0.128,-0.1301,-0.1317,-0.1351,-0.1373,-0.1412,-0.1438,-0.1485,-0.1539,-0.1574,-0.1605,-0.1654,-0.1653,-0.1678,-0.1697,-0.1722,-0.1727,-0.1731,-0.171,-0.1712,-0.1688,-0.1688,-0.1688,0,-0.1163,-0.119,-0.1225,-0.1244,-0.1261,-0.1309,-0.1331,-0.1361,-0.1399,-0.1418,-0.1424,-0.1514,-0.1552,-0.1627,-0.1648,-0.1665,-0.1663,-0.1673,-0.1727,-0.1731,-0.1735,-0.1712,-0.1714,-0.169,-0.169,-0.1689,-0.1689,0,-0.1168,-0.1198,-0.121,-0.1253,-0.1278,-0.1303,-0.1349,-0.1378,-0.1413,-0.1436,-0.1501,-0.1547,-0.16,-0.1634,-0.1663,-0.1726,-0.1709,-0.1722,-0.1708,-0.1742,-0.1716,-0.1718,-0.1692,-0.1692,-0.1691,-0.1691,0,0,-0.115,-0.1205,-0.1211,-0.123,-0.1285,-0.1304,-0.1353,-0.14,-0.1433,-0.1476,-0.151,-0.1601,-0.1625,-0.1661,-0.1709,-0.1744,-0.1773,-0.1753,-0.1754,-0.1722,-0.1798,-0.1627,-0.1612,-0.1804,-0.1805,-0.1806,-0.1763,0,-0.1145,-0.1172,-0.1207,-0.124,-0.126,-0.1315,-0.1347,-0.1399,-0.1447,-0.1483,-0.1553,-0.1601,-0.164,-0.1679,-0.1722,-0.1767,-0.1781,-0.1781,-0.1777,-0.1776,-0.1613,-0.161,-0.1809,-0.1764,-0.1764,-0.1764,-0.1764,0,-0.113,-0.1152,-0.1184,-0.123,-0.1246,-0.1272,-0.1338,-0.1381,-0.1454,-0.1492,-0.1559,-0.1597,-0.1673,-0.169,-0.1764,-0.1767,-0.1779,-0.1799,-0.1799,-0.1627,-0.1607,-0.1728,-0.1767,-0.1766,-0.1766,-0.1766,-0.1766,0,-0.1079,-0.1129,-0.1153,-0.1169,-0.1236,-0.1262,-0.1302,-0.1376,-0.1415,-0.15,-0.1518,-0.1609,-0.1642,-0.1699,-0.1738,-0.1763,-0.1782,-0.1818,-0.1662,-0.1649,-0.1807,-0.1803,-0.1838,-0.1838,-0.1838,-0.1839,-0.1839,0,-0.1035,-0.1056,-0.1129,-0.1143,-0.1165,-0.123,-0.1271,-0.1328,-0.1402,-0.1426,-0.1518,-0.1521,-0.1649,-0.167,-0.172,-0.167,-0.1763,-0.1642,-0.1625,-0.1816,-0.1815,-0.1806,-0.1803,-0.1837,-0.1837,-0.1838,-0.1838,0,-0.0968,-0.1019,-0.1052,-0.1124,-0.1144,-0.1162,-0.1234,-0.1258,-0.1344,-0.1376,-0.1396,-0.1463,-0.1464,-0.1542,-0.1607,-0.1603,-0.1606,-0.1561,-0.1716,-0.1713,-0.1462,-0.1461,-0.1386,-0.1379,-0.1374,-0.1369,-0.1365,0,-0.0933,-0.0949,-0.1028,-0.1033,-0.1063,-0.1102,-0.1121,-0.122,-0.124,-0.1308,-0.1294,-0.1307,-0.1335,-0.1265,-0.1379,-0.1411,-0.1414,-0.1416,-0.1477,-0.1422,-0.1416,-0.1423,-0.143,-0.1357,-0.1355,-0.1354,-0.1353,0,-0.0872,-0.0916,-0.0944,-0.0957,-0.0974,-0.0985,-0.1015,-0.1022,-0.1121,-0.1201,-0.1136,-0.1129,-0.1095,-0.1132,-0.1144,-0.1188,-0.1431,-0.136,-0.1373,-0.143,-0.1387,-0.1387,-0.14,-0.1334,-0.1336,-0.1338,-0.1339,0,-0.0838,-0.0825,-0.0868,-0.0864,-0.0873,-0.0843,-0.0885,-0.0876,-0.0911,-0.0999,-0.0958,-0.0979,-0.1036,-0.1008,-0.1034,-0.1041,-0.1054,-0.1083,-0.1111,-0.1133,-0.1079,-0.0989,-0.0776,0,0,0,0,0,-0.0788,-0.0758,-0.0759,-0.0737,-0.0737,-0.0738,-0.0795,-0.0847,-0.094,-0.0851,-0.0907,-0.0862,-0.0847,-0.0865,-0.0825,-0.0956,-0.1085,-0.0912,-0.1139,-0.1229,-0.125,-0.1215,0,0,0,0,0,0,-0.0749,-0.0744,-0.0732,-0.0632,-0.0584,-0.0569,-0.0602,-0.0671,-0.0633,-0.0728,-0.0706,-0.0788,-0.0776,-0.0818,-0.0784,-0.0802,-0.0929,-0.0948,-0.0946,-0.1216,-0.1236,-0.1254,-0.1225,0,0,0,0,0]},{"header":{"parameterUnit":"m.s-1","parameterCategory":2,"la1":30.2991,"la2":30.254,"lo1":-89.0895,"lo2":-89.0444,"dy":0.0017,"dx":0.0017,"nx":28,"ny":28,"refTime":"2024-08-13T21:00:00:Z","depth":"4","parameterNumber":3,"parameterNumberName":"V-component_of_CURRENTS"},"data":[0,0,0,0,0,0,0,0,0,0,0,0,0,0,0,0,0,0,0,0,0,0,0,0,0,0,0,0,0,0,0,0,0,0,0,0,0,0,0,0,0,0,0,0,0,0,0,0,0,0,0,0,0,0,0,0,0,0,-0.0147,-0.0147,0,-0.0172,-0.0172,-0.0173,-0.0155,-0.0154,-0.0153,-0.0152,-0.0117,-0.0117,-0.0117,0,0,0,0,0,0,0,0,0,0,0,0,0,-0.0141,-0.0141,-0.0147,-0.0147,-0.0147,-0.0172,-0.0172,-0.0173,-0.0155,-0.0154,-0.0152,-0.0151,-0.0117,-0.0117,-0.0117,0,0,0,0,0,0,0,0,0,0,0,0,0,-0.0154,-0.0141,-0.0147,-0.014,-0.014,-0.0172,-0.0172,-0.0173,-0.0155,-0.0154,-0.0152,-0.0151,-0.0117,-0.0117,-0.0117,-0.0146,0,0,-0.0117,-0.0117,0,0,0,0,0,0,0,0,-0.0153,-0.0154,-0.0141,-0.0141,-0.014,-0.0157,-0.0158,-0.016,-0.0155,-0.0151,-0.0152,-0.015,-0.0125,-0.0124,-0.0136,-0.0144,-0.0143,-0.0117,-0.0117,-0.0117,-0.0117,0,0,0,0,0,0,0,-0.0152,-0.0153,-0.0159,-0.0141,-0.0141,-0.0155,-0.0155,-0.0159,-0.0146,-0.0151,-0.015,-0.015,-0.0124,-0.0136,-0.0134,-0.0142,-0.0117,-0.0117,-0.0117,-0.0117,-0.0151,-0.0152,0,0,0,0,0,0,-0.0144,-0.0152,-0.0158,-0.0159,-0.0141,-0.0156,-0.0156,-0.0155,-0.0147,-0.0145,-0.0151,-0.0149,-0.0137,-0.0135,-0.0133,-0.0151,-0.0117,-0.0117,-0.0117,-0.015,-0.0151,-0.0152,0,0,0,0,0,0,-0.0144,-0.0145,-0.0157,-0.0155,-0.0157,-0.0157,-0.0156,-0.0156,-0.0164,-0.0148,-0.0144,-0.0158,-0.0135,-0.0133,-0.0148,-0.0149,-0.0117,-0.0117,-0.0149,-0.0151,-0.0152,-0.0195,0,0,0,0,0,0,-0.0144,-0.0144,-0.0148,-0.0155,-0.0157,-0.0178,-0.0157,-0.0157,-0.0165,-0.0163,-0.0153,-0.0148,-0.0134,-0.0148,-0.0148,-0.0149,-0.0117,-0.0148,-0.015,-0.0151,-0.0193,-0.0198,-0.0203,0,0,0,0,0,-0.0144,-0.016,-0.0148,-0.0149,-0.016,-0.0179,-0.0183,-0.0178,-0.0167,-0.0179,-0.0177,-0.0148,-0.0158,-0.015,-0.0149,-0.015,-0.0147,-0.0149,-0.0151,-0.0191,-0.0197,-0.0202,0,0,0,0,0,0,-0.0162,-0.016,-0.0147,-0.0161,-0.0167,-0.0175,-0.0189,-0.0184,-0.0195,-0.0191,-0.0172,-0.0169,-0.0184,-0.0167,-0.0158,-0.0165,-0.0143,-0.0145,-0.0173,-0.0179,-0.0184,-0.0173,-0.0117,0,0,0,0,0,-0.0166,-0.0174,-0.0172,-0.0183,-0.0187,-0.0188,-0.0197,-0.0193,-0.02,-0.0203,-0.0198,-0.0192,-0.0195,-0.0186,-0.0192,-0.0199,-0.0162,-0.0196,-0.0201,-0.0205,-0.0197,-0.0142,-0.0141,-0.0159,-0.0159,-0.0159,0,0,-0.0175,-0.0175,-0.0179,-0.0187,-0.0192,-0.0216,-0.0191,-0.0207,-0.0229,-0.0198,-0.0231,-0.0219,-0.0205,-0.0218,-0.0219,-0.0198,-0.0186,-0.0207,-0.0211,-0.02,-0.0144,-0.0142,-0.014,-0.0161,-0.016,-0.016,0,0,-0.0203,-0.0197,-0.0214,-0.0226,-0.0234,-0.0238,-0.0243,-0.0254,-0.0259,-0.0293,-0.0269,-0.0254,-0.0277,-0.0248,-0.0241,-0.0275,-0.0225,-0.0278,-0.028,-0.0228,-0.0225,-0.0222,-0.0194,-0.0188,-0.0266,-0.0266,-0.0266,0,-0.0214,-0.0234,-0.0224,-0.025,-0.0269,-0.0251,-0.0284,-0.0295,-0.031,-0.0312,-0.0311,-0.0306,-0.0289,-0.0272,-0.028,-0.0282,-0.0254,-0.0258,-0.0232,-0.0228,-0.0224,-0.0195,-0.0188,-0.0268,-0.0268,-0.0268,-0.0268,0,-0.0255,-0.0276,-0.0292,-0.0315,-0.0336,-0.0361,-0.0371,-0.0383,-0.0388,-0.0389,-0.0388,-0.0363,-0.0346,-0.0336,-0.0322,-0.0282,-0.0273,-0.0254,-0.0212,-0.0225,-0.0194,-0.0186,-0.0272,-0.0271,-0.027,-0.027,0,0,-0.0268,-0.0311,-0.0318,-0.0344,-0.0374,-0.0397,-0.0429,-0.0448,-0.0458,-0.0456,-0.0462,-0.044,-0.0398,-0.0385,-0.0342,-0.0284,-0.0238,-0.0256,-0.0252,-0.022,-0.0138,-0.011,-0.0098,-0.0211,-0.0209,-0.0208,-0.0134,0,-0.0303,-0.0362,-0.0379,-0.0445,-0.0477,-0.0482,-0.0516,-0.0527,-0.0529,-0.0531,-0.0473,-0.0473,-0.0426,-0.0408,-0.0343,-0.0267,-0.0215,-0.0261,-0.0137,-0.0133,-0.0099,-0.0086,-0.0203,-0.0128,-0.0126,-0.0124,-0.0123,0,-0.0338,-0.0376,-0.0444,-0.0506,-0.0522,-0.0562,-0.0597,-0.0622,-0.0606,-0.0604,-0.0561,-0.0528,-0.0446,-0.0412,-0.0265,-0.0297,-0.0223,-0.0158,-0.0153,-0.01,-0.0088,-0.0108,-0.0107,-0.0109,-0.011,-0.0111,-0.0112,0,-0.0351,-0.0424,-0.048,-0.0505,-0.0569,-0.0601,-0.0631,-0.0639,-0.0655,-0.0636,-0.0638,-0.0547,-0.0507,-0.0388,-0.0257,-0.0261,-0.0098,-0.0089,0.0005,0.0006,-0.0022,-0.0026,0.0012,0.0012,0.0012,0.0012,0.0012,0,-0.0384,-0.0432,-0.0494,-0.053,-0.0601,-0.0631,-0.0687,-0.0697,-0.0698,-0.0708,-0.0666,-0.0639,-0.0497,-0.0395,-0.0269,-0.0101,-0.0105,0.0013,0.0038,-0.0048,-0.0055,-0.0017,-0.0022,0.0015,0.0014,0.0013,0.0013,0,-0.0395,-0.0431,-0.0504,-0.0582,-0.0612,-0.0662,-0.0733,-0.0755,-0.0759,-0.0765,-0.0762,-0.0698,-0.056,-0.0415,-0.0224,-0.0124,0.0035,0.0089,-0.0027,-0.0012,0.0102,0.0094,0.0202,0.0204,0.0205,0.0207,0.0208,0,-0.0408,-0.0443,-0.054,-0.0586,-0.0631,-0.0704,-0.0747,-0.0779,-0.0792,-0.0788,-0.078,-0.0686,-0.0619,-0.0332,-0.0182,0.0052,0.0086,0.0147,0.0145,0.0114,0.0127,0.0116,0.0107,0.021,0.0211,0.0211,0.0211,0,-0.0435,-0.0465,-0.052,-0.0608,-0.0676,-0.0748,-0.0805,-0.0814,-0.083,-0.0845,-0.0769,-0.065,-0.0502,-0.0305,-0.0132,0.0037,0.0103,0.0164,0.0162,0.0161,0.0125,0.0134,0.0123,0.0217,0.0216,0.0216,0.0215,0,-0.0448,-0.0487,-0.0549,-0.0624,-0.0705,-0.076,-0.0798,-0.0802,-0.0812,-0.079,-0.076,-0.0624,-0.055,-0.0312,-0.0144,0.002,0.0062,0.0108,0.011,0.0105,0.006,-0.0001,0.0085,0,0,0,0,0,-0.0459,-0.0492,-0.0562,-0.0641,-0.0713,-0.0758,-0.0819,-0.0839,-0.0849,-0.0786,-0.0766,-0.0622,-0.0387,-0.0299,-0.0123,-0.0116,0.0082,0.0093,0.0134,0.0247,0.0241,0.0208,0,0,0,0,0,0,-0.0471,-0.0525,-0.0552,-0.0627,-0.0673,-0.0753,-0.0788,-0.0802,-0.0756,-0.0747,-0.0616,-0.0574,-0.0339,-0.0471,-0.0115,-0.0072,-0.0022,0.0194,0.0198,0.0251,0.0245,0.024,0.0204,0,0,0,0,0]}]]